Year,Month,Day,Hour,Minute,Value (Times are PST for temperature in C)
2016,07,14,08,56,18.40
2016,07,14,08,57,18.40
2016,07,14,08,58,18.40
2016,07,14,08,59,18.40
2016,07,14,09,00,18.40
2016,07,14,09,01,18.30
2016,07,14,09,02,18.30
2016,07,14,09,03,18.30
2016,07,14,09,04,18.30
2016,07,14,09,05,18.30
2016,07,14,09,06,18.20
2016,07,14,09,07,18.10
2016,07,14,09,08,18.00
2016,07,14,09,09,18.00
2016,07,14,09,10,17.90
2016,07,14,09,11,17.90
2016,07,14,09,12,17.90
2016,07,14,09,13,17.90
2016,07,14,09,14,17.90
2016,07,14,09,15,17.90
2016,07,14,09,16,18.00
2016,07,14,09,17,18.00
2016,07,14,09,18,18.00
2016,07,14,09,19,17.90
2016,07,14,09,20,17.90
2016,07,14,09,21,17.80
2016,07,14,09,22,17.70
2016,07,14,09,23,17.70
2016,07,14,09,24,17.70
2016,07,14,09,25,17.80
2016,07,14,09,26,17.80
2016,07,14,09,27,17.90
2016,07,14,09,28,18.00
2016,07,14,09,29,18.10
2016,07,14,09,30,18.20
2016,07,14,09,31,18.10
2016,07,14,09,32,18.10
2016,07,14,09,33,18.10
2016,07,14,09,34,18.10
2016,07,14,09,35,18.10
2016,07,14,09,36,18.10
2016,07,14,09,37,18.00
2016,07,14,09,38,18.00
2016,07,14,09,39,17.90
2016,07,14,09,40,17.80
2016,07,14,09,41,17.70
2016,07,14,09,42,17.70
2016,07,14,09,43,17.70
2016,07,14,09,44,17.70
2016,07,14,09,45,17.70
2016,07,14,09,46,17.70
2016,07,14,09,47,17.70
2016,07,14,09,48,17.70
2016,07,14,09,49,17.70
2016,07,14,09,50,17.80
2016,07,14,09,51,17.70
2016,07,14,09,52,17.70
2016,07,14,09,53,17.60
2016,07,14,09,54,17.60
2016,07,14,09,55,17.60
2016,07,14,09,56,17.60
2016,07,14,09,57,17.60
2016,07,14,09,58,17.60
2016,07,14,09,59,17.70
2016,07,14,10,00,17.80
2016,07,14,10,01,17.80
2016,07,14,10,02,17.90
2016,07,14,10,03,18.00
2016,07,14,10,04,18.20
2016,07,14,10,05,18.30
2016,07,14,10,06,18.40
2016,07,14,10,07,18.50
2016,07,14,10,08,18.40
2016,07,14,10,09,18.40
2016,07,14,10,10,18.50
2016,07,14,10,11,18.60
2016,07,14,10,12,18.70
2016,07,14,10,13,18.70
2016,07,14,10,14,18.80
2016,07,14,10,15,18.90
2016,07,14,10,16,18.90
2016,07,14,10,17,18.90
2016,07,14,10,18,18.80
2016,07,14,10,19,18.80
2016,07,14,10,20,18.90
2016,07,14,10,21,18.90
2016,07,14,10,22,18.90
2016,07,14,10,23,18.90
2016,07,14,10,24,19.00
2016,07,14,10,25,18.80
2016,07,14,10,26,18.80
2016,07,14,10,27,18.70
2016,07,14,10,28,18.60
2016,07,14,10,29,18.60
2016,07,14,10,30,18.60
2016,07,14,10,31,18.60
2016,07,14,10,32,18.60
2016,07,14,10,33,18.50
2016,07,14,10,34,18.40
2016,07,14,10,35,18.40
2016,07,14,10,36,18.40
2016,07,14,10,37,18.40
2016,07,14,10,38,18.30
2016,07,14,10,39,18.40
2016,07,14,10,40,18.40
2016,07,14,10,41,18.40
2016,07,14,10,42,18.30
2016,07,14,10,43,18.30
2016,07,14,10,44,18.30
2016,07,14,10,45,18.20
2016,07,14,10,46,18.20
2016,07,14,10,47,18.20
2016,07,14,10,48,18.10
2016,07,14,10,49,18.10
2016,07,14,10,50,18.10
2016,07,14,10,51,18.10
2016,07,14,10,52,18.10
2016,07,14,10,53,18.10
2016,07,14,10,54,18.10
2016,07,14,10,55,18.30
2016,07,14,10,56,18.40
2016,07,14,10,57,18.50
2016,07,14,10,58,18.70
2016,07,14,10,59,18.70
2016,07,14,11,00,18.70
2016,07,14,11,01,18.60
2016,07,14,11,02,18.60
2016,07,14,11,03,18.50
2016,07,14,11,04,18.50
2016,07,14,11,05,18.40
2016,07,14,11,06,18.40
2016,07,14,11,07,18.40
2016,07,14,11,08,18.40
2016,07,14,11,09,18.40
2016,07,14,11,10,18.40
2016,07,14,11,11,18.50
2016,07,14,11,12,18.60
2016,07,14,11,13,18.60
2016,07,14,11,14,18.70
2016,07,14,11,15,18.70
2016,07,14,11,16,18.80
2016,07,14,11,17,18.90
2016,07,14,11,18,19.00
2016,07,14,11,19,19.00
2016,07,14,11,20,19.00
2016,07,14,11,21,18.90
2016,07,14,11,22,18.90
2016,07,14,11,23,18.80
2016,07,14,11,24,18.80
2016,07,14,11,25,18.80
2016,07,14,11,26,18.90
2016,07,14,11,27,19.00
2016,07,14,11,28,19.10
2016,07,14,11,29,19.20
2016,07,14,11,30,19.30
2016,07,14,11,31,19.30
2016,07,14,11,32,19.20
2016,07,14,11,33,19.20
2016,07,14,11,34,19.10
2016,07,14,11,35,19.00
2016,07,14,11,36,19.00
2016,07,14,11,37,19.00
2016,07,14,11,38,19.10
2016,07,14,11,39,19.10
2016,07,14,11,40,19.20
2016,07,14,11,41,19.10
2016,07,14,11,42,19.10
2016,07,14,11,43,19.10
2016,07,14,11,44,19.00
2016,07,14,11,45,19.00
2016,07,14,11,46,19.00
2016,07,14,11,47,19.00
2016,07,14,11,48,18.90
2016,07,14,11,49,19.00
2016,07,14,11,50,19.00
2016,07,14,11,51,19.00
2016,07,14,11,52,19.00
2016,07,14,11,53,19.00
2016,07,14,11,54,19.00
2016,07,14,11,55,19.10
2016,07,14,11,56,19.10
2016,07,14,11,57,19.10
2016,07,14,11,58,19.00
2016,07,14,11,59,19.00
2016,07,14,12,00,19.00
2016,07,14,12,01,19.00
2016,07,14,12,02,18.90
2016,07,14,12,03,18.90
2016,07,14,12,04,18.90
2016,07,14,12,05,18.90
2016,07,14,12,06,18.80
2016,07,14,12,07,18.80
2016,07,14,12,08,18.80
2016,07,14,12,09,18.90
2016,07,14,12,10,19.00
2016,07,14,12,11,19.10
2016,07,14,12,12,19.10
2016,07,14,12,13,19.20
2016,07,14,12,14,19.20
2016,07,14,12,15,19.30
2016,07,14,12,16,19.30
2016,07,14,12,17,19.30
2016,07,14,12,18,19.30
2016,07,14,12,19,19.40
2016,07,14,12,20,19.50
2016,07,14,12,21,19.60
2016,07,14,12,22,19.60
2016,07,14,12,23,19.70
2016,07,14,12,24,19.70
2016,07,14,12,25,19.70
2016,07,14,12,26,19.80
2016,07,14,12,27,19.80
2016,07,14,12,28,19.70
2016,07,14,12,29,19.60
2016,07,14,12,30,19.50
2016,07,14,12,31,19.40
2016,07,14,12,32,19.40
2016,07,14,12,33,19.40
2016,07,14,12,34,19.30
2016,07,14,12,35,19.30
2016,07,14,12,36,19.20
2016,07,14,12,37,19.10
2016,07,14,12,38,19.10
2016,07,14,12,39,19.10
2016,07,14,12,40,19.20
2016,07,14,12,41,19.20
2016,07,14,12,42,19.20
2016,07,14,12,43,19.30
2016,07,14,12,44,19.20
2016,07,14,12,45,19.10
2016,07,14,12,46,19.10
2016,07,14,12,47,19.00
2016,07,14,12,48,19.10
2016,07,14,12,49,19.10
2016,07,14,12,50,19.20
2016,07,14,12,51,19.20
2016,07,14,12,52,19.20
2016,07,14,12,53,19.30
2016,07,14,12,54,19.20
2016,07,14,12,55,19.20
2016,07,14,12,56,19.10
2016,07,14,12,57,19.10
2016,07,14,12,58,19.10
2016,07,14,12,59,19.00
2016,07,14,13,00,19.00
2016,07,14,13,01,18.90
2016,07,14,13,02,18.90
2016,07,14,13,03,18.90
2016,07,14,13,04,18.90
2016,07,14,13,05,18.90
2016,07,14,13,06,19.00
2016,07,14,13,07,19.00
2016,07,14,13,08,19.00
2016,07,14,13,09,19.00
2016,07,14,13,10,19.00
2016,07,14,13,11,19.10
2016,07,14,13,12,19.10
2016,07,14,13,13,19.10
2016,07,14,13,14,19.10
2016,07,14,13,15,19.20
2016,07,14,13,16,19.20
2016,07,14,13,17,19.20
2016,07,14,13,18,19.20
2016,07,14,13,19,19.20
2016,07,14,13,20,19.20
2016,07,14,13,21,19.20
2016,07,14,13,22,19.20
2016,07,14,13,23,19.20
2016,07,14,13,24,19.20
2016,07,14,13,25,19.20
2016,07,14,13,26,19.20
2016,07,14,13,27,19.20
2016,07,14,13,28,19.30
2016,07,14,13,29,19.30
2016,07,14,13,30,19.30
2016,07,14,13,31,19.20
2016,07,14,13,32,19.20
2016,07,14,13,33,19.20
2016,07,14,13,34,19.20
2016,07,14,13,35,19.10
2016,07,14,13,36,19.00
2016,07,14,13,37,19.00
2016,07,14,13,38,19.00
2016,07,14,13,39,19.00
2016,07,14,13,40,19.10
2016,07,14,13,41,19.00
2016,07,14,13,42,19.00
2016,07,14,13,43,19.00
2016,07,14,13,44,19.00
2016,07,14,13,45,19.00
2016,07,14,13,46,19.00
2016,07,14,13,47,19.00
2016,07,14,13,48,19.10
2016,07,14,13,49,19.10
2016,07,14,13,50,19.10
2016,07,14,13,51,19.00
2016,07,14,13,52,19.00
2016,07,14,13,53,18.90
2016,07,14,13,54,18.90
2016,07,14,13,55,18.80
2016,07,14,13,56,18.80
2016,07,14,13,57,18.80
2016,07,14,13,58,18.70
2016,07,14,13,59,18.70
2016,07,14,14,00,18.70
2016,07,14,14,01,18.70
2016,07,14,14,02,18.70
2016,07,14,14,03,18.80
2016,07,14,14,04,18.80
2016,07,14,14,05,18.80
2016,07,14,14,06,18.80
2016,07,14,14,07,18.80
2016,07,14,14,08,18.80
2016,07,14,14,09,18.80
2016,07,14,14,10,18.90
2016,07,14,14,11,18.90
2016,07,14,14,12,18.90
2016,07,14,14,13,18.90
2016,07,14,14,14,18.90
2016,07,14,14,15,18.90
2016,07,14,14,16,18.90
2016,07,14,14,17,18.80
2016,07,14,14,18,18.80
2016,07,14,14,19,18.70
2016,07,14,14,20,18.60
2016,07,14,14,21,18.60
2016,07,14,14,22,18.50
2016,07,14,14,23,18.50
2016,07,14,14,24,18.40
2016,07,14,14,25,18.40
2016,07,14,14,26,18.40
2016,07,14,14,27,18.40
2016,07,14,14,28,18.40
2016,07,14,14,29,18.40
2016,07,14,14,30,18.40
2016,07,14,14,31,18.40
2016,07,14,14,32,18.40
2016,07,14,14,33,18.40
2016,07,14,14,34,18.30
2016,07,14,14,35,18.30
2016,07,14,14,36,18.30
2016,07,14,14,37,18.20
2016,07,14,14,38,18.20
2016,07,14,14,39,18.20
2016,07,14,14,40,18.10
2016,07,14,14,41,18.00
2016,07,14,14,42,18.00
2016,07,14,14,43,17.90
2016,07,14,14,44,17.80
2016,07,14,14,45,17.80
2016,07,14,14,46,17.80
2016,07,14,14,47,17.80
2016,07,14,14,48,17.80
2016,07,14,14,49,17.80
2016,07,14,14,50,17.80
2016,07,14,14,51,17.80
2016,07,14,14,52,17.80
2016,07,14,14,53,17.80
2016,07,14,14,54,17.80
2016,07,14,15,44,15.80
2016,07,14,15,45,15.90
2016,07,14,15,46,15.90
2016,07,14,15,47,16.00
2016,07,14,15,48,16.10
2016,07,14,15,49,16.20
2016,07,14,15,50,16.30
2016,07,14,15,51,16.30
2016,07,14,15,52,16.40
2016,07,14,15,53,16.40
2016,07,14,15,54,16.50
2016,07,14,15,55,16.50
2016,07,14,15,56,16.50
2016,07,14,15,57,16.60
2016,07,14,15,58,16.60
2016,07,14,15,59,16.60
2016,07,14,16,00,16.60
2016,07,14,16,01,16.60
2016,07,14,16,02,16.60
2016,07,14,16,03,16.60
2016,07,14,16,04,16.60
2016,07,14,16,05,16.60
2016,07,14,16,06,16.60
2016,07,14,16,07,16.60
2016,07,14,16,08,16.60
2016,07,14,16,09,16.60
2016,07,14,16,10,16.60
2016,07,14,16,11,16.60
2016,07,14,17,53,15.80
2016,07,14,17,54,15.80
2016,07,14,17,55,15.90
2016,07,14,17,56,15.90
2016,07,14,17,57,15.90
2016,07,14,17,58,15.90
2016,07,14,17,59,16.00
2016,07,14,18,00,16.00
2016,07,14,18,01,16.00
2016,07,14,18,02,16.00
2016,07,14,18,03,16.10
2016,07,14,18,04,16.10
2016,07,14,18,05,16.20
2016,07,14,18,06,16.30
2016,07,14,18,07,16.50
2016,07,14,18,08,16.50
2016,07,14,18,09,16.50
2016,07,14,18,10,16.40
2016,07,14,18,11,16.50
2016,07,14,18,12,16.50
2016,07,14,18,13,16.60
2016,07,14,18,14,16.60
2016,07,14,18,15,16.60
2016,07,14,18,16,16.70
2016,07,14,18,17,16.70
2016,07,14,18,18,16.70
2016,07,14,18,19,16.60
2016,07,14,18,20,16.60
2016,07,14,18,21,16.60
2016,07,14,18,22,16.50
2016,07,14,18,23,16.50
2016,07,14,18,24,16.50
2016,07,14,18,25,16.50
2016,07,14,18,26,16.60
2016,07,14,18,27,16.60
2016,07,14,18,28,16.60
2016,07,14,18,29,16.70
2016,07,14,18,30,16.80
2016,07,14,18,31,16.80
2016,07,14,18,32,16.80
2016,07,14,18,33,16.90
2016,07,14,18,34,17.00
2016,07,14,18,35,17.10
2016,07,14,18,36,17.10
2016,07,14,18,37,17.20
2016,07,14,18,38,17.30
2016,07,14,18,39,17.40
2016,07,14,18,40,17.40
2016,07,14,18,41,17.50
2016,07,14,18,42,17.50
2016,07,14,18,43,17.60
2016,07,14,18,44,17.50
2016,07,14,18,45,17.40
2016,07,14,18,46,17.30
2016,07,14,18,47,17.20
2016,07,14,18,48,17.10
2016,07,14,18,49,17.00
2016,07,14,18,50,17.00
2016,07,14,18,51,17.00
2016,07,14,18,52,16.90
2016,07,14,18,53,16.90
2016,07,14,18,54,16.90
2016,07,14,18,55,16.90
2016,07,14,18,56,16.90
2016,07,14,18,57,16.80
2016,07,14,18,58,16.80
2016,07,14,18,59,16.80
2016,07,14,19,00,16.80
2016,07,14,19,01,16.80
2016,07,14,19,02,16.80
2016,07,14,19,03,16.80
2016,07,14,19,04,16.80
2016,07,14,19,05,16.80
2016,07,14,19,06,16.80
2016,07,14,19,07,16.80
2016,07,14,19,08,16.80
2016,07,14,19,09,16.80
2016,07,14,19,10,16.90
2016,07,14,19,11,16.90
2016,07,14,19,12,16.90
2016,07,14,19,13,16.90
2016,07,14,19,14,17.00
2016,07,14,19,15,17.00
2016,07,14,19,16,17.10
2016,07,14,19,17,17.10
2016,07,14,19,18,17.10
2016,07,14,19,19,17.20
2016,07,14,19,20,17.30
2016,07,14,19,21,17.30
2016,07,14,19,22,17.40
2016,07,14,19,23,17.40
2016,07,14,19,24,17.40
2016,07,14,19,25,17.40
2016,07,14,19,26,17.40
2016,07,14,19,27,17.40
2016,07,14,19,28,17.40
2016,07,14,19,29,17.40
2016,07,14,19,30,17.40
2016,07,14,19,31,17.40
2016,07,14,19,32,17.40
